Regional Weather Roundup
Issued by NWS

Home | Current Version | Previous Version | Text Only | Print | Product List | Glossary On
Versions: 1 2 3 4 5 6 7 8 9 10 11 12 13 14 15 16 17 18 19 20 21 22 23 24 25 26 27 28
000
ASUS45 KBOI 210410
RWRID

IDAHO REGIONAL WEATHER ROUNDUP
NATIONAL WEATHER SERVICE BOISE ID
900 PM MST MON FEB 20 2017

NOTE: "FAIR" INDICATES FEW OR NO CLOUDS BELOW 12000 FEET
WITH NO SIGNIFICANT WEATHER AND/OR OBSTRUCTIONS TO VISIBILITY

IDZ012-014-210500-
SOUTHWEST IDAHO


CITY           SKY/WX    TMP DP  RH WIND       PRES   REMARKS
BOISE          CLOUDY    49  39  68 SE10      29.78S
CALDWELL       LGT RAIN  49  42  77 CALM      29.77S
MOUNTAIN HOME  CLOUDY    51  40  65 S10       29.82S
$$

IDZ016-017-210500-
SOUTHCENTRAL IDAHO


CITY           SKY/WX    TMP DP  RH WIND       PRES   REMARKS
BURLEY         LGT RAIN  46  38  73 S8        29.88S
JEROME           N/A    N/A N/A N/A MISG      29.89R
TWIN FALLS     LGT RAIN  46  36  68 S14       29.87S
$$

IDZ019>023-210500-
SOUTHEAST IDAHO


CITY           SKY/WX    TMP DP  RH WIND       PRES   REMARKS
IDAHO FALLS    CLOUDY    40  35  83 S14       29.88R WCI  32
POCATELLO      CLOUDY    45  37  73 S10       29.90F
REXBURG        CLOUDY    41  35  79 S12       29.87R
$$

IDZ006-010-011-018-031-032-210500-
CENTRAL IDAHO MOUNTAINS


CITY           SKY/WX    TMP DP  RH WIND       PRES   REMARKS
MCCALL         CLOUDY    39  31  72 SE12      29.74F WCI  32
HAILEY         LGT RAIN  36  36 100 SE7       29.87S WCI  30
STANLEY          N/A     33  32  96 CALM      29.80S
SALMON         CLOUDY    41  34  75 S15       29.74S
CHALLIS        LGT RAIN  34  34 100 CALM      29.79R FOG
$$

IDZ002-004-006-007-026-210500-
NORTHERN IDAHO


CITY           SKY/WX    TMP DP  RH WIND       PRES   REMARKS
LEWISTON       CLOUDY    49  33  54 NW12      29.71R
LOWELL           N/A     37  34  89 N3        29.76R
COEUR D`ALENE  CLOUDY    37  33  85 S12       29.70R WCI  29
MULLAN PASS    PTCLDY    28  25  88 W8G20     29.63S WCI  20
$$




USA.gov is the U.S. government's official web portal to all federal, state and local government web resources and services.